[[{"header":{"parameterUnit":"m.s-1","parameterCategory":1,"la1":30.2991,"la2":30.254,"lo1":-89.0895,"lo2":-89.0444,"dy":0.0017,"dx":0.0017,"nx":28,"ny":28,"refTime":"2024-03-21T21:00:00:Z","depth":0,"parameterNumber":2,"parameterNumberName":"U-component_of_WINDS"},"data":[0,0,0,0,0,0,0,0,0,0,0,0,0,0,0,0,0,0,0,0,0,0,0,0,0,0,0,0,0,0,0,0,0,0,0,0,0,0,0,0,0,0,0,0,0,0,0,0,0,0,0,0,0,0,0,0,0,0,1.9946,1.9946,0,1.9966,1.9966,1.9966,1.9903,1.9901,1.9899,1.9897,1.992,1.9922,1.9925,0,0,0,0,0,0,0,0,0,0,0,0,0,1.9857,1.9859,1.9946,1.9946,1.9947,1.9966,1.9966,1.9966,1.9903,1.9901,1.9899,1.9897,1.9919,1.9922,1.9925,0,0,0,0,0,0,0,0,0,0,0,0,0,1.9888,1.986,1.9946,1.9918,1.9915,1.9966,1.9966,1.9966,1.9904,1.9901,1.9898,1.9896,1.9918,1.9922,1.9925,2.0005,0,0,1.9936,1.9938,0,0,0,0,0,0,0,0,1.9887,1.9892,1.9922,1.992,1.9917,1.9929,1.9943,1.9979,1.9905,1.9908,1.9897,1.9894,1.9926,1.9928,1.9938,2.0006,2.0007,1.9937,1.9939,1.994,1.9941,0,0,0,0,0,0,0,1.9884,1.989,1.9954,1.9922,1.9919,1.9905,1.9906,1.9949,1.9933,1.9908,1.9903,1.9906,1.9924,1.9935,1.9939,2.0008,1.9937,1.994,1.9942,1.9943,2.0142,2.0145,0,0,0,0,0,0,1.9886,1.9889,1.9953,1.9955,1.9894,1.9909,1.991,1.9928,1.9932,1.993,1.9909,1.9903,1.993,1.9934,1.9939,2.0033,1.994,1.9944,1.9946,2.0139,2.0143,2.0146,0,0,0,0,0,0,1.9884,1.9892,1.9953,1.9921,1.9927,1.9913,1.9934,1.993,1.9941,1.9933,1.993,1.9923,1.9928,1.9934,1.9989,2.0033,1.9945,1.9949,2.0135,2.014,2.0144,2.0222,0,0,0,0,0,0,1.9882,1.9892,1.9921,1.9922,1.9929,2.0002,1.9937,1.9932,1.9947,1.994,1.9946,1.9944,1.9927,1.9984,1.9993,2.0036,1.9951,2.0131,2.0137,2.0143,2.0215,2.0228,2.024,0,0,0,0,0,1.9879,1.9943,1.9923,1.9931,1.9966,2.0004,2.0009,1.9987,1.9951,1.9981,1.9976,1.9944,2.0026,1.999,1.9999,2.0045,2.0128,2.0136,2.0142,2.021,2.0226,2.024,0,0,0,0,0,0,1.995,1.9943,1.9921,1.9987,1.9997,1.9994,2.0031,2.0005,2.0026,2.0018,1.9991,1.9992,2.0053,2.0054,2.0014,2.0122,2.0071,2.0081,2.012,2.0135,2.0147,2.0146,1.9954,0,0,0,0,0,1.9973,2.0004,1.9996,2.0055,2.0061,2.0046,2.0062,2.0044,2.0053,2.0057,2.0056,2.0067,2.0095,2.0115,2.0141,2.0215,2.0215,2.025,2.0263,2.0273,2.0282,2.0321,2.0337,2.0169,2.0169,2.0169,0,0,2.0021,2.0021,2.0043,2.007,2.0075,2.0109,2.005,2.0088,2.0113,2.0063,2.0115,2.0115,2.0125,2.019,2.0219,2.0193,2.0328,2.0282,2.029,2.0293,2.033,2.0346,2.036,2.0174,2.0173,2.0172,0,0,2.0127,2.013,2.0179,2.0186,2.0194,2.0183,2.0195,2.0197,2.0194,2.0245,2.0209,2.0238,2.0288,2.0297,2.0308,2.0417,2.0389,2.0426,2.0491,2.053,2.0543,2.0555,2.0595,2.0609,2.0434,2.0435,2.0435,0,2.0187,2.0235,2.0209,2.0249,2.0263,2.0218,2.0269,2.0276,2.0294,2.0304,2.0275,2.0336,2.034,2.0407,2.0433,2.0443,2.0457,2.0426,2.0543,2.0555,2.0565,2.0603,2.0618,2.0439,2.0439,2.0438,2.0438,0,2.0308,2.0343,2.0382,2.0399,2.0416,2.0462,2.0443,2.0464,2.0444,2.0436,2.049,2.0492,2.0518,2.0532,2.0514,2.0597,2.0581,2.0548,2.0496,2.0586,2.0621,2.0635,2.0446,2.0444,2.0443,2.0442,0,0,2.0461,2.0461,2.0477,2.0484,2.049,2.0516,2.056,2.0584,2.0603,2.0616,2.0653,2.0695,2.0664,2.0677,2.0659,2.0693,2.078,2.0656,2.0656,2.068,2.0873,2.0898,2.0915,2.0761,2.0763,2.0765,2.0872,0,2.0566,2.064,2.0617,2.0692,2.0724,2.0681,2.0719,2.0728,2.0721,2.0748,2.0741,2.0772,2.0729,2.0736,2.0768,2.0763,2.0819,2.0755,2.0796,2.0798,2.0796,2.0933,2.0961,2.1061,2.0885,2.0888,2.0889,0,2.0699,2.0716,2.0794,2.0795,2.0807,2.0842,2.0862,2.0888,2.0896,2.0889,2.0903,2.0878,2.0921,2.0869,2.0929,2.0886,2.0901,2.0901,2.0904,2.0908,2.085,2.0943,2.1093,2.1109,2.091,2.0909,2.0907,0,2.0804,2.0846,2.0899,2.0906,2.0907,2.0933,2.0935,2.094,2.0956,2.0974,2.0984,2.1007,2.102,2.1039,2.1021,2.0984,2.1084,2.103,2.1081,2.1081,2.1105,2.1104,2.1261,2.1113,2.1113,2.1112,2.1112,0,2.0924,2.0974,2.0946,2.0978,2.1033,2.1006,2.1061,2.1058,2.1063,2.1095,2.1059,2.109,2.1063,2.1092,2.1078,2.113,2.1136,2.1132,2.1129,2.1137,2.1137,2.1147,2.114,2.1116,2.1115,2.1115,2.1114,0,2.1051,2.1034,2.1089,2.1085,2.1085,2.1126,2.1123,2.1154,2.1144,2.1185,2.1193,2.1178,2.121,2.1193,2.1226,2.1216,2.1285,2.127,2.1282,2.1279,2.1331,2.1327,2.1501,2.1523,2.1359,2.1361,2.1362,0,2.113,2.1167,2.1167,2.1186,2.119,2.1219,2.1235,2.121,2.1228,2.124,2.1269,2.1297,2.1319,2.1371,2.1364,2.1389,2.1376,2.1436,2.138,2.1387,2.1379,2.1377,2.1381,2.1448,2.1449,2.1451,2.1452,0,2.1272,2.1262,2.1285,2.1306,2.1326,2.1342,2.1354,2.1371,2.1346,2.1368,2.1399,2.1416,2.1449,2.1478,2.1499,2.1502,2.1474,2.1469,2.1483,2.1492,2.1498,2.1497,2.1314,2.1466,2.1465,2.1464,2.1463,2.1462,2.1379,2.141,2.1415,2.1442,2.1449,2.1461,2.1489,2.1483,2.1508,2.1533,2.1516,2.1553,2.1561,2.1586,2.1592,2.1622,2.1598,2.1617,2.1622,2.1628,2.1635,2.1492,2.1625,2.1625,2.1624,2.1624,2.1624,0,2.152,2.1521,2.1546,2.1564,2.1586,2.1556,2.1568,2.1589,2.1622,2.163,2.1652,2.1688,2.1716,2.171,2.1735,2.176,2.1748,2.1768,2.1766,2.1768,2.1654,2.1641,2.1777,2.1777,2.1777,2.1777,2.1777,2.1777,2.1596,2.1648,2.1638,2.1692,2.1692,2.1728,2.1737,2.1749,2.1756,2.1797,2.182,2.1816,2.1819,2.1844,2.1868,2.1866,2.1877,2.1902,2.1896,2.179,2.1775,2.1761,2.1748,2.1905,2.1905,2.2006,2.2007,2.2008]},{"header":{"parameterUnit":"m.s-1","parameterCategory":1,"la1":30.2991,"la2":30.254,"lo1":-89.0895,"lo2":-89.0444,"dy":0.0017,"dx":0.0017,"nx":28,"ny":28,"refTime":"2024-03-21T21:00:00:Z","depth":0,"parameterNumber":3,"parameterNumberName":"V-component_of_WINDS"},"data":[0,0,0,0,0,0,0,0,0,0,0,0,0,0,0,0,0,0,0,0,0,0,0,0,0,0,0,0,0,0,0,0,0,0,0,0,0,0,0,0,0,0,0,0,0,0,0,0,0,0,0,0,0,0,0,0,0,0,-0.3987,-0.3987,0,-0.4043,-0.4044,-0.4045,-0.418,-0.4183,-0.4185,-0.4188,-0.4244,-0.4243,-0.4242,0,0,0,0,0,0,0,0,0,0,0,0,0,-0.3995,-0.3994,-0.3986,-0.3987,-0.3988,-0.4043,-0.4044,-0.4045,-0.4179,-0.4183,-0.4186,-0.4189,-0.4245,-0.4244,-0.4242,0,0,0,0,0,0,0,0,0,0,0,0,0,-0.4015,-0.3994,-0.3986,-0.4062,-0.4069,-0.4043,-0.4044,-0.4045,-0.4179,-0.4183,-0.4187,-0.4191,-0.4245,-0.4244,-0.4242,-0.4147,0,0,-0.4237,-0.4236,0,0,0,0,0,0,0,0,-0.4014,-0.4015,-0.405,-0.4057,-0.4065,-0.4109,-0.4068,-0.4079,-0.4178,-0.4137,-0.4188,-0.4193,-0.4196,-0.4198,-0.42,-0.415,-0.4152,-0.4237,-0.4236,-0.4235,-0.4234,0,0,0,0,0,0,0,-0.4012,-0.4013,-0.4009,-0.405,-0.4059,-0.4093,-0.4101,-0.4071,-0.4142,-0.4141,-0.4151,-0.4156,-0.4201,-0.4201,-0.4202,-0.4153,-0.4237,-0.4235,-0.4234,-0.4234,-0.4032,-0.4028,0,0,0,0,0,0,-0.4,-0.4011,-0.4007,-0.4011,-0.4049,-0.4089,-0.4098,-0.409,-0.4143,-0.4155,-0.4152,-0.4162,-0.4202,-0.4204,-0.4205,-0.41,-0.4235,-0.4233,-0.4232,-0.4036,-0.4031,-0.4026,0,0,0,0,0,0,-0.4,-0.3999,-0.4005,-0.4014,-0.4017,-0.4085,-0.4075,-0.4089,-0.409,-0.4151,-0.4165,-0.4139,-0.4205,-0.4207,-0.4161,-0.4103,-0.4233,-0.4231,-0.4041,-0.4034,-0.4028,-0.3886,0,0,0,0,0,0,-0.4,-0.3998,-0.3962,-0.4012,-0.4016,-0.396,-0.4072,-0.4087,-0.4087,-0.41,-0.4143,-0.4154,-0.4209,-0.4163,-0.416,-0.4103,-0.423,-0.4047,-0.4038,-0.403,-0.3896,-0.3876,-0.3858,0,0,0,0,0,-0.3999,-0.3918,-0.3959,-0.3958,-0.3973,-0.3956,-0.3959,-0.4024,-0.4081,-0.4047,-0.4087,-0.4153,-0.411,-0.4157,-0.4154,-0.4097,-0.4051,-0.4041,-0.4031,-0.3905,-0.388,-0.3858,0,0,0,0,0,0,-0.3858,-0.3926,-0.3972,-0.3905,-0.3924,-0.3979,-0.3937,-0.3994,-0.3997,-0.4009,-0.409,-0.4098,-0.4042,-0.4065,-0.4116,-0.401,-0.4091,-0.408,-0.3996,-0.3973,-0.3954,-0.395,-0.4228,0,0,0,0,0,-0.3819,-0.38,-0.3861,-0.3795,-0.3803,-0.3868,-0.3863,-0.3912,-0.3935,-0.3943,-0.398,-0.3999,-0.3991,-0.3983,-0.3978,-0.3901,-0.3913,-0.386,-0.384,-0.3824,-0.3814,-0.3778,-0.3756,-0.3994,-0.3994,-0.3994,0,0,-0.3738,-0.3773,-0.3756,-0.3768,-0.3788,-0.3768,-0.3873,-0.3846,-0.3832,-0.3939,-0.3899,-0.3926,-0.3953,-0.3892,-0.3867,-0.3909,-0.3751,-0.3812,-0.3799,-0.3797,-0.3766,-0.3743,-0.3723,-0.3987,-0.3988,-0.399,0,0,-0.358,-0.3604,-0.3554,-0.3573,-0.3604,-0.3648,-0.3636,-0.3683,-0.3706,-0.3667,-0.3748,-0.3732,-0.3715,-0.3732,-0.3738,-0.3591,-0.3653,-0.3587,-0.3486,-0.345,-0.3431,-0.3415,-0.3365,-0.3345,-0.3577,-0.3576,-0.3576,0,-0.3475,-0.3447,-0.352,-0.3489,-0.3493,-0.3591,-0.3541,-0.3556,-0.3583,-0.3583,-0.3631,-0.3614,-0.3639,-0.3585,-0.3549,-0.355,-0.354,-0.3582,-0.3428,-0.3413,-0.3399,-0.3352,-0.3332,-0.3568,-0.3569,-0.357,-0.3571,0,-0.3319,-0.3298,-0.3254,-0.328,-0.3279,-0.3238,-0.3305,-0.3296,-0.3345,-0.3385,-0.3346,-0.338,-0.3385,-0.3376,-0.3423,-0.3329,-0.3355,-0.3414,-0.3498,-0.3367,-0.3324,-0.3306,-0.3557,-0.356,-0.3562,-0.3564,0,0,-0.3071,-0.314,-0.3123,-0.3137,-0.3179,-0.3165,-0.313,-0.3137,-0.3128,-0.3144,-0.3118,-0.3103,-0.3159,-0.3166,-0.3216,-0.3184,-0.3069,-0.3248,-0.325,-0.3215,-0.297,-0.2926,-0.2903,-0.311,-0.3107,-0.3104,-0.2968,0,-0.2925,-0.2869,-0.2935,-0.2866,-0.285,-0.2944,-0.2914,-0.2937,-0.2973,-0.2965,-0.3006,-0.2995,-0.3069,-0.3074,-0.3047,-0.3088,-0.3021,-0.3099,-0.3087,-0.3086,-0.3078,-0.2881,-0.2834,-0.2703,-0.2952,-0.2949,-0.2947,0,-0.2746,-0.2756,-0.2685,-0.2735,-0.2731,-0.2702,-0.2716,-0.2706,-0.2735,-0.2764,-0.2774,-0.2836,-0.2806,-0.2888,-0.2849,-0.2901,-0.2901,-0.2921,-0.2917,-0.2919,-0.3009,-0.2879,-0.2663,-0.2644,-0.2921,-0.2923,-0.2925,0,-0.2575,-0.257,-0.2529,-0.2537,-0.2594,-0.2573,-0.2595,-0.2629,-0.263,-0.2641,-0.2643,-0.265,-0.2654,-0.2659,-0.2721,-0.2774,-0.2676,-0.2762,-0.2701,-0.2699,-0.2676,-0.2676,-0.2458,-0.2673,-0.2673,-0.2673,-0.2674,0,-0.2405,-0.2358,-0.2453,-0.2427,-0.2379,-0.2456,-0.2406,-0.2438,-0.2468,-0.2451,-0.2532,-0.2514,-0.2598,-0.2589,-0.2638,-0.26,-0.2601,-0.2625,-0.2638,-0.2618,-0.2615,-0.2619,-0.263,-0.2668,-0.2669,-0.267,-0.2671,0,-0.2206,-0.2267,-0.2228,-0.2286,-0.23,-0.2262,-0.2312,-0.2291,-0.2334,-0.2312,-0.2311,-0.2378,-0.2373,-0.2436,-0.2442,-0.2476,-0.2416,-0.2445,-0.2406,-0.2416,-0.2352,-0.2358,-0.2129,-0.2104,-0.2333,-0.2331,-0.2329,0,-0.2094,-0.2061,-0.2116,-0.2111,-0.213,-0.2121,-0.2123,-0.2198,-0.2197,-0.223,-0.2205,-0.2207,-0.2213,-0.22,-0.225,-0.2256,-0.2287,-0.2206,-0.2288,-0.2269,-0.2288,-0.2289,-0.2288,-0.2189,-0.2186,-0.2184,-0.2182,0,-0.1889,-0.1922,-0.1922,-0.1934,-0.1934,-0.1947,-0.1964,-0.1955,-0.2038,-0.2033,-0.2029,-0.2033,-0.2042,-0.2043,-0.2059,-0.2084,-0.2146,-0.2156,-0.2143,-0.2122,-0.2102,-0.2114,-0.2361,-0.2161,-0.2163,-0.2165,-0.2166,-0.2166,-0.1732,-0.1708,-0.1744,-0.1743,-0.1765,-0.178,-0.1764,-0.1807,-0.1805,-0.1818,-0.1863,-0.1852,-0.1885,-0.1914,-0.1933,-0.1926,-0.1966,-0.1945,-0.194,-0.1934,-0.1923,-0.2102,-0.1929,-0.193,-0.193,-0.1931,-0.1931,0,-0.1533,-0.1562,-0.156,-0.1583,-0.1582,-0.1643,-0.1667,-0.1662,-0.1652,-0.1678,-0.1682,-0.168,-0.1682,-0.1733,-0.1742,-0.1727,-0.1757,-0.1727,-0.173,-0.1735,-0.1887,-0.1898,-0.1704,-0.1704,-0.1704,-0.1704,-0.1704,-0.1704,-0.143,-0.1394,-0.1431,-0.1408,-0.1437,-0.1428,-0.1437,-0.1452,-0.1474,-0.1467,-0.147,-0.1504,-0.1541,-0.1554,-0.1559,-0.1575,-0.1575,-0.1536,-0.156,-0.1702,-0.1724,-0.1745,-0.1756,-0.1535,-0.1534,-0.141,-0.1409,-0.1408]}]]